Flag for Poland Weather past 2 weeks in Elbląg, Poland

Now
66 °F

Partly sunny.


Feels Like: 66 °F
Forecast: 52 / 72 °F
Wind: 6 mph from West

Location: Hel

Current Time: Sep 2, 2015 at 3:19:36 PM

Latest Report: Sep 2, 2015 at 2:00 PM


Visibility: 19 mi

Pressure: 29.92 "Hg

Humidity: 67%

Dew point: 54 °F

Location of ElblągLocation

Historic Weather in Elbląg — Graph

°F

Elbląg temperature yesterday

Maximum temperature yesterday: 82 °F (at 2:00 PM)
Minimum temperature yesterday: 65 °F (at 10:00 PM)
Average temperature yesterday: 71 °F

Past Weeks' High & Low Weather Summary

 TemperatureHumidityPressure
High82 °F (Sep 1, 2:00 PM)97% (Aug 21, 8:00 AM)30.41 "Hg (Aug 21, 8:00 AM)
Low53 °F (Aug 22, 6:00 AM)45% (Aug 20, 12:00 PM)29.67 "Hg (Sep 1, 11:00 AM)
Average66 °F77%30.08 "Hg
* Reported Aug 18 2:00 PM — Sep 2 2:00 PM, Elbląg, Weather by CustomWeather, © 2015

Note: Actual official high and low records may vary slightly from our data, if they occured in-between our weather recording intervals... More about our weather records

Advertising

Elbląg weather history for previous 24 hours

 ConditionsComfort  
Time TempWeatherWind HumidityBarometerVisibility
2:00 PM
Wed, Sep 2
66 °FPartly sunny.6 mph67%29.92 "Hg19 mi
1:00 PM67 °FPartly sunny.6 mph64%29.91 "Hg19 mi
12:00 PM64 °FOvercast.6 mph69%29.90 "Hg12 mi
11:00 AM62 °FSprinkles. Overcast.6 mph80%29.88 "Hg9 mi
10:00 AM62 °FOvercast.7 mph85%29.86 "Hg12 mi
9:00 AM62 °FOvercast.7 mph86%29.84 "Hg12 mi
8:00 AM62 °FOvercast.8 mph87%29.81 "Hg12 mi
7:00 AM62 °FOvercast.6 mph91%29.79 "Hg12 mi
6:00 AM62 °FOvercast.6 mph93%29.79 "Hg12 mi
4:00 AM63 °FSprinkles. Overcast.6 mph95%29.78 "Hg5 mi
3:00 AM64 °FThundershowers. Low clouds.5 mph97%29.78 "Hg2 mi
2:00 AM64 °FThundershowers. Overcast.3 mph96%29.74 "Hg1 mi
1:00 AM63 °FPassing clouds.3 mph95%29.76 "Hg6 mi
12:00 AM63 °FPassing clouds.2 mph92%29.73 "Hg6 mi
10:00 PM
Tue, Sep 1
65 °FPassing clouds.2 mph90%29.73 "Hg12 mi
9:00 PM67 °FPassing clouds.1 mph86%29.73 "Hg12 mi
8:00 PM68 °FPassing clouds.3 mph83%29.72 "Hg12 mi
7:00 PM70 °FPassing clouds.6 mph77%29.71 "Hg12 mi
6:00 PM73 °FScattered clouds.7 mph68%29.70 "Hg12 mi
5:00 PM76 °FPassing clouds.7 mph63%29.70 "Hg12 mi
4:00 PM77 °FSunny.5 mph63%29.69 "Hg12 mi
3:00 PM77 °FPassing clouds.5 mph66%29.69 "Hg12 mi
Weather by CustomWeather, © 2015

See weather overviewHow to use our weather pages